Home   Weather   Teófilo Otoni   Past weeks

Flag for Brazil Past Weather in Teófilo Otoni, Minas Gerais, Brazil — Yesterday and Last 2 Weeks

77 °F

Scattered clouds.

Feels Like: 79 °F
Forecast: 69 / 91 °F
Wind: 8 mph from Northeast

Location: Belo Horizonte Airport

Current Time: Oct 24, 2016 at 10:37:38 AM

Latest Report: Oct 24, 2016 at 10:00 AM

Visibility: N/A

Pressure: 30.15 "Hg

Humidity: 54%

Dew Point: 59 °F

Location of Teófilo OtoniLocation

Past Weather in Teófilo Otoni — Graph


Teófilo Otoni Temperature Yesterday

Maximum temperature yesterday: 82 °F (at 5:00 PM)
Minimum temperature yesterday: 70 °F (at 4:00 AM)
Average temperature yesterday: 75 °F

High & Low Weather Summary for the Past Weeks

High93 °F (Oct 20, 4:00 PM)83% (Oct 11, 5:00 AM)30.24 "Hg (Oct 11, 5:00 AM)
Low64 °F (Oct 11, 5:00 AM)28% (Oct 20, 4:00 PM)29.86 "Hg (Oct 20, 4:00 PM)
Average76 °F59%30.07 "Hg
* Reported Oct 9 8:00 AM — Oct 24 9:00 AM, Teófilo Otoni, Weather by CustomWeather, © 2016

Note: Actual official high and low records may vary slightly from our data, if they occured in-between our weather recording intervals... More about our weather records


Teófilo Otoni Weather History for the Previous 24 Hours

Scroll right to see more
Time TempWeatherWind HumidityBarometerVisibility
9:00 AM
Mon, Oct 24
73 °FPassing clouds.10 mph65%30.15 "HgN/A
8:00 AM70 °FPassing clouds.12 mph73%30.12 "HgN/A
7:00 AM66 °FSunny.8 mph83%30.09 "Hg10 mi
6:00 AM66 °FClear.9 mph83%30.07 "Hg10 mi
5:00 AM68 °FClear.7 mph78%30.07 "Hg10 mi
4:00 AM68 °FClear.10 mph78%30.07 "Hg10 mi
3:00 AM70 °FClear.10 mph73%30.07 "Hg10 mi
2:00 AM70 °FClear.12 mph73%30.07 "Hg10 mi
1:00 AM72 °FClear.13 mph69%30.07 "Hg10 mi
12:00 AM72 °FClear.9 mph65%30.12 "Hg10 mi
11:00 PM
Sun, Oct 23
72 °FClear.9 mph65%30.12 "Hg10 mi
10:00 PM73 °FClear.12 mph61%30.12 "Hg10 mi
9:00 PM73 °FClear.9 mph61%30.09 "Hg10 mi
8:00 PM77 °FClear.10 mph54%30.09 "Hg10 mi
7:00 PM79 °FSunny.8 mph48%30.07 "Hg10 mi
6:00 PM81 °FPassing clouds.12 mph45%30.07 "HgN/A
5:00 PM82 °FScattered clouds.12 mph42%30.07 "HgN/A
4:00 PM81 °FScattered clouds.7 mph48%30.09 "HgN/A
3:00 PM81 °FScattered clouds.10 mph51%30.12 "HgN/A
2:00 PM79 °FPartly sunny.13 mph51%30.15 "HgN/A
1:00 PM77 °FPartly sunny.8 mph57%30.15 "HgN/A
12:00 PM77 °FPartly sunny.12 mph54%30.15 "HgN/A
11:00 AM75 °FPartly sunny.12 mph61%30.18 "HgN/A
10:00 AM77 °FPartly sunny.16 mph57%30.18 "HgN/A
Weather by CustomWeather, © 2016

See weather overviewHow to use our weather pages